Location: F?ge?el
(45.8833°N, 22.5833°E)
Time: 23:44:11
(UTC+00:00)

Cosmos 2034 Rocket - Pass Details

Date: 17 November 2025
Orbit: 958 x 998 km, 82.9° (Epoch: 11 December)

Event Time Altitude Azimuth Distance (km) Brightness Sun altitude
Rises 17:28:28 0° 194° (SSW) 3,636 7.2 -26.3°
Reaches altitude 10° 17:30:57 10° 197° (SSW) 2,698 6.5 -26.8°
Maximum altitude 17:37:06 69° 280° (W) 1,039 4.2 -27.8°
Drops below altitude 10° 17:43:23 10° 4° (N) 2,743 6.3 -28.9°
Sets 17:45:57 0° 7° (N) 3,702 7.0 -29.4°
